GFSMA_2pvu_pres_192.txt.gz
Presure
157 180 179 184 184 183 169 171 173 172 176 170 168 171 166 175 165 169 163 168 180 180 182 181 180 184 184 185 182 181 176 180 178 179 177 180 178 178 183 185 178 180 181
176 180 174 184 169 182 169 176 177 169 176 185 181 180 181 163 177 190 176 183 175 179 185 179 179 180 185 177 185 187 180 185 183 184 171 184 170 169 169 171 175 176 175
174 165 170 156 170 175 170 171 165 161 171 175 157 165 162 164 172 177 157 177 181 173 172 186 192 193 194 191 188 189 186 185 147 184 182 183 183 176 178 171 182 175 175
173 174 178 166 176 183 181 174 174 185 177 176 175 177 189 179 179 186 181 178 182 179 181 185 193 194 190 182 180 182 179 175 180 173 178 189 185 203 197 196 195 206 216
176 174 173 171 177 181 176 181 179 177 177 175 188 181 185 174 176 183 174 181 181 182 189 189 195 178 172 169 178 178 183 173 188 193 207 204 204 199 203 211 203 214 200
165 168 177 183 177 177 176 189 188 181 188 153 192 148 178 179 173 183 182 173 182 182 185 175 180 185 177 182 183 178 172 201 200 193 201 200 195 203 214 205 205 193 209
184 161 122 163 191 184 176 145 172 147 188 162 184 169 186 182 151 191 190 188 162 164 196 200 195 183 153 155 179 169 201 195 199 195 195 192 202 185 172 210 209 205 208
182 181 175 180 143 194 154 160 182 193 152 193 172 153 163 174 181 186 176 180 189 177 158 138 152 155 150 140 201 190 183 188 183 183 212 206 220 203 223 210 207 206 213
205 198 193 180 180 182 172 168 179 183 175 143 175 152 151 177 131 166 185 171 132 163 171 169 147 201 189 171 181 167 190 223 216 239 253 233 241 241 257 280 249 283 233
197 212 213 207 179 181 176 180 168 178 182 167 185 145 169 157 167 176 186 190 185 188 193 194 155 197 221 226 222 222 233 271 284 261 256 330 342 332 326 318 246 260 277
225 211 212 209 208 211 211 211 218 178 203 189 176 185 183 182 183 182 201 202 206 213 223 226 226 220 220 236 232 272 265 244 284 330 326 324 327 332 337 357 314 315 319
219 218 218 193 210 221 216 211 211 211 215 216 216 218 222 221 220 221 219 219 213 213 211 217 228 235 242 234 259 256 319 314 304 298 292 293 294 297 304 310 317 335 355
217 221 225 220 197 194 205 205 206 212 224 222 210 205 203 203 202 200 204 212 224 228 226 230 236 255 261 265 324 308 294 285 276 273 271 275 275 279 280 287 293 299 315
219 221 215 206 207 208 206 210 204 206 203 212 215 212 220 224 223 220 226 220 218 232 225 258 275 269 297 318 296 283 271 267 263 259 258 266 262 269 272 278 290 284 290
212 248 247 232 218 191 224 198 196 203 215 213 206 214 208 217 209 224 226 226 234 255 265 272 319 317 306 286 273 266 258 257 253 258 249 243 256 266 272 271 307 301 285
217 237 236 237 226 210 208 214 220 224 216 216 223 227 226 225 217 248 246 256 266 336 323 310 307 299 280 268 261 254 252 254 248 245 248 247 245 249 259 274 286 340 350
227 234 229 243 246 238 240 233 230 220 225 226 225 226 235 244 235 249 259 268 323 315 305 307 295 277 263 260 252 245 251 243 244 240 233 242 250 250 257 252 245 290 328
241 245 226 252 232 226 236 241 231 239 250 249 247 246 243 248 255 269 329 316 305 295 300 291 274 258 254 250 240 248 239 241 240 237 241 241 243 243 250 256 260 256 279
225 251 242 250 241 242 233 243 242 245 251 251 245 255 255 269 289 327 312 297 289 293 288 268 257 250 248 238 243 238 238 231 237 242 240 240 241 242 243 245 251 256 262
239 239 224 233 251 251 245 249 251 246 245 256 258 265 282 283 312 302 289 283 281 288 266 253 246 248 239 240 236 236 231 236 243 243 243 238 238 239 244 241 246 249 258
224 231 238 258 249 239 235 255 258 262 266 258 275 276 274 297 285 280 281 280 288 265 253 243 245 238 238 236 234 230 229 236 241 237 239 244 245 250 247 246 244 245 256
265 254 239 239 271 266 264 256 252 253 281 282 273 266 284 278 270 281 279 284 266 252 244 244 238 235 237 229 231 232 237 235 231 234 238 238 242 251 249 254 263 256 244
236 241 232 253 253 261 262 261 264 284 285 274 267 265 283 270 280 281 285 268 253 246 242 237 236 236 232 229 230 233 230 226 228 229 226 235 239 240 243 252 254 256 259
245 254 250 252 257 273 272 278 281 277 270 265 263 269 272 267 274 288 270 255 246 241 237 237 234 230 225 229 232 228 224 221 225 227 228 231 235 236 241 250 250 246 253
247 247 252 260 276 276 266 269 265 269 263 261 264 281 272 273 271 273 258 249 240 240 231 233 229 230 231 226 225 221 227 221 225 229 229 235 234 235 236 249 253 250 251
243 251 266 278 267 263 260 262 266 259 262 264 274 275 268 266 280 266 252 242 238 230 233 228 229 230 226 224 220 221 225 218 227 225 226 228 233 235 234 248 253 255 249

GFSMA_2pvu_pres_195.txt.gz
Presure
166 179 175 170 177 166 167 171 188 173 185 181 174 179 176 173 177 181 173 167 162 174 171 168 164 172 174 178 179 182 184 185 186 186 183 192 192 189 185 180 180 182 181
149 135 190 180 182 174 180 178 166 182 179 185 183 171 176 180 175 176 171 182 166 171 169 163 164 170 169 181 171 177 182 180 177 177 180 182 181 184 183 174 182 144 173
186 187 162 185 171 180 184 168 179 173 175 184 176 181 179 173 171 174 174 178 182 151 170 161 165 178 181 182 177 176 162 174 188 196 192 185 186 179 185 192 189 189 165
149 188 166 186 171 177 178 182 177 173 165 170 172 174 173 172 164 169 166 166 163 161 169 177 177 173 173 168 184 179 189 184 183 195 187 188 184 183 181 179 180 178 185
233 191 179 170 172 190 182 172 176 176 175 178 179 182 181 179 178 177 172 171 166 155 169 173 176 179 181 182 145 177 185 189 187 179 188 184 171 184 181 181 192 152 204
173 226 195 191 179 161 176 191 184 146 174 157 181 164 181 149 176 186 190 191 190 183 178 181 175 186 173 170 173 183 185 185 183 196 194 189 184 179 180 189 175 192 205
170 134 225 159 193 179 192 160 179 193 133 185 145 187 172 173 171 160 176 173 151 172 173 170 165 183 191 193 161 188 198 175 172 160 181 179 155 161 164 168 177 194 201
207 164 205 188 225 194 182 179 177 183 189 189 191 147 177 178 173 165 175 188 192 194 192 185 144 181 156 166 132 189 183 156 166 189 152 156 156 159 175 209 191 195 177
228 194 221 177 184 225 221 198 185 191 176 164 181 173 172 180 146 161 172 173 178 155 177 181 163 177 180 173 150 174 181 184 183 154 151 164 195 196 188 181 200 213 215
223 215 215 213 217 177 188 210 221 213 197 190 192 192 192 157 183 182 175 149 140 167 181 174 176 186 186 187 193 193 200 220 222 194 228 233 223 227 250 265 287 278 268
235 232 228 224 217 207 221 170 174 183 222 218 214 207 203 197 198 141 193 195 198 197 195 194 202 205 206 225 229 227 221 205 206 222 244 255 271 291 285 274 335 335 343
221 199 208 228 231 225 212 220 234 235 225 210 206 192 223 223 220 221 219 221 223 223 223 225 224 217 215 198 196 205 228 230 241 250 270 299 317 315 306 302 302 302 304
241 218 217 229 215 232 221 228 209 212 222 223 226 221 215 204 209 200 216 226 232 233 232 229 224 218 236 226 229 217 265 262 271 271 312 302 290 288 285 284 285 288 287
226 240 231 236 205 221 226 207 216 209 199 203 211 206 224 221 206 206 214 220 224 207 216 228 235 237 232 232 229 251 284 319 317 305 296 285 275 270 269 267 268 271 282
227 234 226 236 251 172 221 196 228 216 229 225 217 219 214 210 241 229 233 217 227 220 219 229 234 235 246 266 300 328 315 301 290 280 273 269 262 257 259 257 250 257 265
220 217 241 226 236 232 226 238 219 212 199 204 199 228 237 227 206 216 226 237 217 225 221 212 240 268 281 336 320 305 297 282 274 267 259 256 248 252 246 248 251 248 244
227 220 226 226 223 242 229 239 232 236 237 217 222 223 234 234 247 231 253 254 239 242 253 262 265 336 324 309 299 294 278 268 259 255 252 244 247 244 243 244 243 246 257
232 215 222 233 229 239 234 217 217 227 222 225 230 250 229 241 261 253 249 248 271 274 260 298 331 313 299 292 288 273 265 254 248 247 242 245 238 241 244 239 241 252 254
210 216 228 221 220 225 226 227 229 234 231 229 248 231 235 265 258 254 260 249 265 283 293 320 302 294 290 288 269 259 250 244 244 235 243 234 239 236 243 252 245 243 244
224 231 221 225 224 227 228 230 214 229 234 240 215 238 258 240 249 256 267 265 279 286 299 289 286 285 289 267 258 247 243 242 232 242 232 239 235 235 243 246 249 247 249
225 214 215 202 215 215 217 226 239 238 220 233 261 263 266 264 265 261 272 277 275 286 280 278 275 285 268 260 248 241 241 229 240 228 237 234 232 242 240 237 240 246 255
226 217 218 213 215 212 223 222 231 218 254 239 247 267 255 252 259 267 278 266 281 273 272 274 283 269 257 247 245 239 237 238 227 232 229 239 238 232 231 232 232 240 246
225 221 216 224 219 228 230 237 238 253 249 245 262 254 260 262 267 276 271 268 276 268 274 277 269 254 248 244 239 238 237 227 234 228 231 236 232 229 228 230 230 231 238
225 219 218 215 223 228 249 239 228 236 253 258 269 280 276 275 262 269 262 269 268 269 281 274 259 248 242 239 237 235 230 231 235 228 233 228 228 228 228 229 230 231 239
224 229 236 223 239 259 243 243 244 260 261 288 282 278 272 255 271 261 263 279 268 268 277 267 253 243 240 237 232 231 229 228 227 232 228 230 226 229 226 230 232 226 227
241 231 230 258 250 247 242 256 252 252 292 284 282 264 265 277 267 265 278 272 269 263 273 262 251 242 238 237 229 228 228 232 228 229 226 228 227 230 226 224 227 234 226

GFSMA_2pvu_pres_201.txt.gz
Presure
152 181 186 144 200 170 184 202 179 196 185 192 195 188 180 183 182 177 180 173 174 174 175 177 179 173 177 182 178 176 166 180 192 194 195 192 185 187 184 185 184 184 183
163 153 150 148 150 189 179 194 208 204 192 176 181 190 191 183 167 172 177 178 179 183 181 178 181 174 173 170 171 176 170 175 176 172 172 177 167 164 172 162 163 170 180
200 160 127 194 158 140 209 191 135 197 214 196 195 179 192 193 179 168 167 174 168 167 179 179 180 172 175 170 172 166 172 174 172 165 163 156 159 169 163 161 186 178 170
203 186 202 194 170 179 182 158 139 145 189 209 210 186 167 178 191 181 177 171 169 165 173 175 166 178 180 165 171 162 179 181 173 166 167 170 161 155 170 153 165 165 172
167 192 183 143 186 194 212 178 215 117 157 192 186 214 204 186 166 170 182 175 180 174 174 170 173 169 179 173 173 173 172 164 165 162 172 179 173 170 162 178 179 173 171
187 184 184 176 212 160 187 213 130 186 177 207 184 145 214 205 199 184 166 190 184 174 180 180 171 172 170 165 167 168 169 166 161 158 163 162 163 168 159 174 164 175 183
183 184 198 190 202 211 199 236 221 176 208 224 231 143 186 135 212 202 194 164 183 188 189 174 180 183 177 175 171 172 175 183 184 145 184 181 188 189 187 196 190 180 171
178 200 193 198 199 199 208 215 241 245 227 216 214 218 196 186 211 149 205 196 159 164 176 191 188 187 187 184 183 186 194 188 185 183 177 178 190 182 177 189 189 185 204
185 179 197 201 184 194 199 198 182 214 239 218 205 217 202 179 228 207 191 207 205 195 199 190 177 163 176 157 197 184 195 180 196 183 169 168 201 195 197 187 170 180 171
193 185 203 195 196 183 224 213 237 215 179 207 217 203 213 219 216 221 218 210 201 211 197 194 194 187 199 160 194 184 178 186 158 163 195 177 166 193 190 161 159 162 155
195 187 195 175 209 226 196 230 197 231 223 203 203 192 208 200 208 212 235 226 175 231 220 214 209 214 200 194 196 188 201 203 202 205 204 182 191 212 183 163 188 213 152
190 202 193 202 194 180 184 190 199 182 200 193 191 200 190 220 204 215 218 223 226 236 223 219 223 225 191 176 197 207 203 200 195 223 217 179 197 205 214 213 218 210 209
182 202 178 188 180 191 204 212 188 247 223 221 219 196 194 193 210 231 225 218 220 208 212 212 221 221 218 206 202 199 223 232 235 233 239 239 241 244 243 244 249 233 223
193 179 218 218 223 230 217 200 205 204 197 196 193 199 204 210 227 228 230 226 215 214 214 221 223 221 217 221 212 218 226 224 230 226 243 246 257 223 217 242 252 259 291
182 227 235 204 222 200 181 194 188 187 202 228 214 205 192 223 242 230 162 247 220 244 231 211 219 222 225 213 239 229 228 262 260 274 233 222 222 225 235 238 294 291 316
201 199 189 204 207 196 198 195 192 198 239 228 186 204 204 223 221 226 237 227 235 181 234 242 234 243 233 235 251 250 251 224 249 272 286 255 279 281 296 333 322 309 296
222 207 216 188 186 193 211 220 220 229 222 221 212 220 217 219 220 230 215 187 223 240 233 192 209 229 224 233 237 282 288 256 279 284 253 296 310 325 317 309 298 288 279
184 227 232 233 230 227 222 220 244 241 228 226 213 217 220 222 216 206 223 210 223 228 221 225 213 227 235 234 240 272 294 287 283 287 301 305 315 300 295 291 283 272 267
240 238 235 232 233 246 234 247 242 198 253 226 206 208 217 218 221 214 205 218 210 185 225 221 183 181 232 238 269 265 278 292 293 287 300 292 287 284 284 280 270 265 260
265 275 260 259 247 249 245 230 242 253 221 232 217 209 226 223 223 221 229 234 233 223 219 222 223 232 230 240 256 290 302 296 280 281 284 280 278 276 276 269 263 256 253
288 286 270 273 247 240 240 228 235 236 210 227 216 217 215 218 216 222 216 207 225 217 223 226 232 219 232 240 249 289 290 277 270 278 276 274 270 272 268 262 252 250 247
281 272 271 246 236 223 214 215 228 215 225 210 215 205 216 217 205 217 223 221 219 215 215 235 223 227 267 277 283 286 278 270 268 278 274 270 268 264 260 253 248 246 242
274 248 236 232 218 231 215 213 225 220 209 209 213 218 217 215 210 218 219 216 225 226 228 226 234 242 224 248 270 271 270 266 270 273 270 266 263 260 254 248 246 243 239
248 238 223 233 226 215 215 228 217 215 216 217 218 217 216 217 217 216 215 224 228 213 228 225 260 295 283 272 275 265 258 263 256 267 268 263 257 255 246 245 244 240 238
225 236 240 234 224 219 221 222 211 220 224 225 218 213 216 217 211 222 218 211 242 225 242 292 300 289 283 284 280 269 263 267 271 263 267 264 258 253 244 243 239 240 239
234 239 233 225 224 231 226 226 226 216 215 216 213 212 212 216 228 227 240 224 217 245 289 286 280 277 273 269 268 269 274 275 272 261 264 262 260 252 246 242 240 236 237

GFSMA_2pvu_pres_204.txt.gz
Presure
224 139 172 163 132 171 169 172 154 192 153 178 192 213 185 188 190 204 197 179 182 187 182 181 181 183 187 183 180 174 185 183 183 179 177 204 191 190 191 184 186 194 197
201 200 193 177 154 178 161 166 174 153 157 152 197 185 191 193 157 189 190 192 186 181 182 185 183 180 174 174 180 174 185 182 174 181 177 178 173 174 178 193 195 195 190
161 201 219 203 192 188 158 158 160 163 161 200 215 149 172 182 147 199 174 189 178 186 184 183 175 184 185 183 183 189 182 190 178 169 171 167 177 166 177 174 170 169 175
151 182 166 196 184 191 197 195 165 185 190 196 188 185 183 149 149 229 144 194 175 180 184 186 171 170 167 180 174 176 182 178 180 173 174 170 176 170 179 173 169 171 164
137 184 180 216 167 194 191 196 197 190 178 204 181 176 176 162 141 147 162 201 208 169 178 184 186 178 176 169 168 164 170 174 167 173 179 173 173 160 180 182 178 161 171
191 205 188 228 203 204 154 195 191 194 198 143 176 239 215 155 208 214 127 178 191 219 200 168 162 181 176 173 178 178 175 175 175 173 174 181 176 175 174 173 173 172 171
185 194 191 214 195 134 198 194 189 185 189 201 207 217 187 158 180 232 145 217 207 182 209 213 192 174 165 161 182 181 177 174 183 173 173 175 174 171 179 181 165 171 176
152 184 182 204 191 188 196 200 200 201 181 195 199 157 208 216 187 239 230 221 210 189 177 209 205 208 191 181 175 173 177 184 184 184 180 179 173 174 172 177 179 185 195
176 185 166 199 151 200 200 180 196 174 191 198 200 205 183 214 233 240 226 196 221 217 155 231 166 182 204 204 195 168 171 164 183 175 187 184 183 184 180 190 189 193 186
194 192 199 180 185 177 203 186 197 177 183 220 173 207 214 193 198 208 213 218 212 212 216 216 160 229 225 232 219 209 199 193 189 176 173 175 168 160 189 168 184 187 195
189 192 190 205 200 185 204 191 195 196 187 181 181 196 209 220 239 216 217 211 210 222 209 214 216 227 217 220 233 222 219 209 207 202 193 190 178 182 161 195 163 184 197
190 199 205 207 192 200 203 199 193 187 199 209 199 181 200 181 219 185 245 208 211 207 223 217 212 235 232 221 227 228 183 191 212 222 217 222 228 235 231 223 221 217 224
214 224 188 149 213 197 205 194 195 176 184 180 176 204 215 190 210 214 214 231 211 185 194 227 220 211 230 230 220 223 223 227 228 228 229 222 239 240 240 199 204 212 219
237 206 201 223 197 193 198 194 180 184 187 205 202 179 230 217 202 200 184 208 183 195 208 183 223 222 222 225 227 228 231 252 247 239 238 225 221 221 232 237 251 287 297
195 206 203 206 213 202 208 176 201 174 182 185 205 233 216 189 208 192 185 203 197 223 210 202 212 241 235 233 238 240 242 223 235 232 238 266 257 238 236 297 299 241 250
210 195 198 226 222 204 191 199 218 209 215 213 197 208 207 193 187 199 207 193 228 211 217 215 226 226 251 245 238 237 235 206 239 235 229 247 256 253 301 305 303 299 311
218 205 200 206 196 206 175 225 212 211 194 188 202 191 192 183 192 191 214 250 222 214 216 223 222 222 216 229 216 229 230 242 232 235 252 241 240 292 294 306 304 305 323
215 224 217 224 212 205 212 205 221 199 206 211 217 209 183 199 218 198 244 248 213 216 214 234 214 210 216 227 228 231 235 230 241 243 243 241 262 312 312 291 301 306 303
228 223 224 216 217 216 204 206 213 205 207 206 217 207 225 207 228 232 224 247 214 223 204 223 223 220 226 221 228 234 231 236 240 239 239 251 325 304 290 285 285 285 286
246 243 241 234 221 225 219 214 223 217 237 208 217 213 215 234 237 228 237 230 236 226 221 206 228 224 216 224 217 229 233 238 234 228 254 306 259 285 280 283 278 276 276
318 277 275 262 257 233 237 231 235 219 221 240 229 231 230 249 232 238 219 212 203 228 220 218 223 223 215 228 228 228 229 234 232 239 256 258 285 279 275 279 274 272 271
347 322 322 357 312 266 263 251 259 251 246 241 240 231 234 236 232 207 227 218 208 216 215 207 222 220 227 225 226 236 226 220 241 258 288 279 281 276 273 274 277 270 267
301 290 317 289 268 250 255 238 244 225 225 226 227 210 217 228 228 214 218 214 211 217 213 209 216 217 218 214 222 231 219 241 253 265 287 274 275 266 262 273 271 269 264
299 292 292 255 272 251 261 258 258 240 227 223 223 227 215 215 223 213 210 214 213 214 214 219 221 216 214 229 231 220 255 281 286 282 283 270 271 266 269 268 271 269 264
266 273 280 291 262 252 260 241 242 234 230 217 221 221 223 218 221 219 215 217 217 221 217 208 212 226 233 232 246 306 293 284 279 271 269 273 266 264 270 267 268 268 267
265 262 256 251 242 248 240 238 232 227 225 210 228 224 217 207 219 222 213 225 205 210 225 224 220 223 228 234 289 286 279 274 271 267 277 277 278 277 275 269 267 266 264